Cecil Field, FL

5:55 PM EDT on April 25, 2017 (GMT -0400)
Cecil

Weather History for KVQQ - July, 2013

Change the Weather History Date:

Tuesday, July 16, 2013

  Actual Average (KNIP) Record (KNIP)
Temperature  
Mean Temperature 78 °F -  
Max Temperature 86 °F 88 °F 98 °F (2006)
Min Temperature 71 °F 73 °F 72 °F (2000)
Cooling Degree Days 14    
Growing Degree Days 28 (Base 50)    
Moisture  
Dew Point 74 °F    
Average Humidity 91    
Maximum Humidity 100    
Minimum Humidity 66    
Precipitation  
Precipitation 0.00 in - - ()
Sea Level Pressure  
Sea Level Pressure 30.19 in    
Wind  
Wind Speed 3 mph (East)    
Max Wind Speed 16 mph    
Max Gust Speed -    
Visibility 8 miles    
Events      
Averages and records for this station are not official NWS values.
T = Trace of Precipitation, MM = Missing Value Source: NWS Daily Summary

Daily Weather History Graph

Daily Weather History Graph

Search for Another Location

Airport or City:

Trip Planner

Search our weather history database for the weather conditions in past years. The results will help you decide how hot, cold, wet, or windy it might be!

Date:

Astronomy

Jul. 16, 2013 Rise Set
Actual Time 6:36 AM EDT 8:30 PM EDT
Civil Twilight 6:09 AM EDT 8:56 PM EDT
Nautical Twilight 5:37 AM EDT 9:29 PM EDT
Astronomical Twilight 5:02 AM EDT 10:03 PM EDT
Moon 2:19 PM EDT (7/16) 12:53 AM EDT (7/16)
Length of Visible Light 14h 47m
Length of Day
13h 53m
First Quarter, 56% of the Moon is Illuminated
Jul 16
First Quarter
Jul 22
Full
Jul 29
Last Quarter
Aug 6
New
Aug 14
First Quarter

Hourly Weather History & Observations

Time (EDT) Temp. Heat Index Dew Point Humidity Pressure Visibility Wind Dir Wind Speed Gust Speed Precip Events Conditions
12:15 AM 75.2 °F - 75.2 °F 100% 30.18 in 7.0 mi East 3.5 mph - N/A   Scattered Clouds
12:35 AM 75.2 °F - 75.2 °F 100% 30.18 in 10.0 mi East 4.6 mph - N/A   Partly Cloudy
12:55 AM 75.2 °F - 73.4 °F 94% 30.18 in 10.0 mi Calm Calm - N/A   Partly Cloudy
1:15 AM 75.2 °F - 73.4 °F 94% 30.17 in 10.0 mi Calm Calm - N/A   Clear
1:35 AM 73.4 °F - 73.4 °F 100% 30.17 in 10.0 mi Calm Calm - N/A   Clear
1:55 AM 73.4 °F - 73.4 °F 100% 30.18 in 10.0 mi Calm Calm - N/A   Partly Cloudy
2:15 AM 73.4 °F - 73.4 °F 100% 30.17 in 9.0 mi Calm Calm - N/A   Clear
2:35 AM 73.4 °F - 73.4 °F 100% 30.17 in 5.0 mi Calm Calm - N/A   Partly Cloudy
2:55 AM 73.4 °F - 73.4 °F 100% 30.16 in 1.0 mi Calm Calm - N/A   Clear
3:15 AM 73.4 °F - 73.4 °F 100% 30.16 in 1.8 mi Calm Calm - N/A   Clear
3:35 AM 73.4 °F - 73.4 °F 100% 30.16 in 3.0 mi Calm Calm - N/A   Clear
3:55 AM 73.4 °F - 73.4 °F 100% 30.17 in 4.0 mi Calm Calm - N/A   Clear
4:15 AM 73.4 °F - 73.4 °F 100% 30.17 in 3.0 mi Calm Calm - N/A   Clear
4:35 AM 71.6 °F - 71.6 °F 100% 30.17 in 3.0 mi Calm Calm - N/A   Clear
4:55 AM 73.4 °F - 73.4 °F 100% 30.17 in 4.0 mi Calm Calm - N/A   Clear
5:15 AM 73.4 °F - 73.4 °F 100% 30.16 in 3.0 mi Calm Calm - N/A   Clear
5:35 AM 73.4 °F - 73.4 °F 100% 30.17 in 3.0 mi Calm Calm - N/A   Clear
5:55 AM 73.4 °F - 73.4 °F 100% 30.17 in 3.0 mi Calm Calm - N/A   Clear
6:15 AM 73.4 °F - 73.4 °F 100% 30.18 in 3.0 mi Calm Calm - N/A   Clear
6:35 AM 73.4 °F - 73.4 °F 100% 30.18 in 0.8 mi Calm Calm - N/A   Mist
6:50 AM 73.4 °F - 73.4 °F 100% 30.18 in 7.0 mi Calm Calm - N/A   Clear
7:50 AM 75.2 °F - 75.2 °F 100% 30.20 in 10.0 mi Calm Calm - N/A   Partly Cloudy
8:50 AM 78.8 °F - 77.0 °F 94% 30.21 in 10.0 mi East 6.9 mph - N/A   Mostly Cloudy
9:50 AM 80.6 °F 86.2 °F 75.2 °F 84% 30.21 in 10.0 mi East 8.1 mph - N/A   Mostly Cloudy
10:50 AM 84.2 °F 92.3 °F 75.2 °F 74% 30.22 in 10.0 mi East 10.4 mph - N/A   Mostly Cloudy
11:50 AM 82.4 °F 88.2 °F 73.4 °F 74% 30.22 in 10.0 mi East 10.4 mph - N/A   Mostly Cloudy
12:50 PM 84.2 °F 90.9 °F 73.4 °F 70% 30.22 in 10.0 mi East 16.1 mph - N/A   Mostly Cloudy
1:50 PM 86.0 °F 93.4 °F 73.4 °F 66% 30.20 in 10.0 mi East 13.8 mph - N/A   Mostly Cloudy
2:50 PM 86.0 °F 93.4 °F 73.4 °F 66% 30.20 in 10.0 mi East 12.7 mph - N/A   Mostly Cloudy
3:50 PM 77.0 °F - 73.4 °F 89% 30.19 in 10.0 mi ENE 8.1 mph - N/A   Scattered Clouds
4:50 PM 86.0 °F 93.4 °F 73.4 °F 66% 30.18 in 10.0 mi East 11.5 mph - N/A   Scattered Clouds
5:50 PM 86.0 °F 93.4 °F 73.4 °F 66% 30.18 in 10.0 mi East 9.2 mph - N/A   Scattered Clouds
6:50 PM 84.2 °F 90.9 °F 73.4 °F 70% 30.18 in 10.0 mi ENE 9.2 mph - N/A   Clear
7:50 PM 82.4 °F 88.2 °F 73.4 °F 74% 30.19 in 10.0 mi East 10.4 mph - N/A   Partly Cloudy
8:15 PM 80.6 °F 85.4 °F 73.4 °F 79% 30.20 in 10.0 mi ENE 3.5 mph - N/A   Partly Cloudy
8:35 PM 80.6 °F 85.4 °F 73.4 °F 79% 30.20 in 10.0 mi East 3.5 mph - N/A   Clear
8:55 PM 78.8 °F - 73.4 °F 83% 30.20 in 10.0 mi ENE 3.5 mph - N/A   Clear
9:15 PM 77.0 °F - 73.4 °F 89% 30.21 in 10.0 mi ENE 3.5 mph - N/A   Clear
9:35 PM 77.0 °F - 73.4 °F 89% 30.21 in 10.0 mi ENE 3.5 mph - N/A   Clear
9:55 PM 77.0 °F - 73.4 °F 89% 30.21 in 10.0 mi Calm Calm - N/A   Clear
10:15 PM 75.2 °F - 73.4 °F 94% 30.21 in 10.0 mi Calm Calm - N/A   Clear
10:35 PM 75.2 °F - 73.4 °F 94% 30.21 in 10.0 mi Calm Calm - N/A   Clear
10:55 PM 75.2 °F - 75.2 °F 100% 30.21 in 10.0 mi Calm Calm - N/A   Clear
11:15 PM 75.2 °F - 75.2 °F 100% 30.21 in 10.0 mi Calm Calm - N/A   Clear
11:35 PM 73.4 °F - 73.4 °F 100% 30.21 in 10.0 mi Calm Calm - N/A   Clear
11:55 PM 75.2 °F - 75.2 °F 100% 30.21 in 10.0 mi Calm Calm - N/A   Clear